Hourly Data Report for August 14, 2020

LYTTON RCS
BRITISH COLUMBIA
Current Station Operator: ECCC - MSC

50°13'28.000" N
121°34'55.000" W
225.00 m
1114746
71765
VLY

Download Data

Hourly Data (August 2020)
Hourly Data Report for August 14, 2020
TIME Temp Definition
°C
Dew Point Definition
°C
Rel Hum Definition
%
Wind Dir Definition
10's deg

Wind Spd Definition
km/h
Visibility Definition
km
Stn Press Definition
kPa
Hmdx Definition


Wind Chill Definition


Weather Definition


00:00 17.6 7.6 52 19 29   99.23     LegendNANA
01:00 17.1 7.6 53 19 28   99.27     LegendNANA
02:00 16.6 7.8 56 18 31   99.32     LegendNANA
03:00 16.1 7.9 58 19 29   99.33     LegendNANA
04:00 15.4 8.0 61 18 37   99.32     LegendNANA
05:00 15.4 8.1 62 18 31   99.36     LegendNANA
06:00 14.9 8.0 63 16 20   99.43     LegendNANA
07:00 15.0 8.0 63 15 22   99.45     LegendNANA
08:00 17.4 7.8 53 17 22   99.43     LegendNANA
09:00 19.9 7.5 45 18 38   99.36     LegendNANA
10:00 22.3 7.1 38 18 39   99.28     LegendNANA
11:00 24.1 6.9 33 18 44   99.18     LegendNANA
12:00 25.8 7.1 30 18 35   99.12 26   LegendNANA
13:00 27.2 7.4 29 18 33   99.04 27   LegendNANA
14:00 28.9 7.6 26 19 30   98.97 29   LegendNANA
15:00 29.8 8.0 26 19 26   98.90 30   LegendNANA
16:00 29.5 8.3 27 19 25   98.86 30   LegendNANA
17:00 28.4 8.2 28 19 26   98.84 29   LegendNANA
18:00 26.6 8.6 32 19 27   98.81 27   LegendNANA
19:00 25.6 8.9 35 20 25   98.86 26   LegendNANA
20:00 24.7 9.3 37 20 26   98.90 26   LegendNANA
21:00 24.0 9.3 39 20 29   98.95 25   LegendNANA
22:00 22.9 9.7 43 19 24   99.05     LegendNANA
23:00 22.2 9.9 46 19 28   99.10     LegendNANA

Notes on Data Quality.

Legend

  • E = Estimated
  • M = Missing
  • NA = Not Available*
  • [empty] = Indicates an unobserved value
Date modified: